If you wish to contribute or participate in the discussions about articles you are invited to join SKYbrary as a registered user

 Actions

Istanbul/Sabiha Gökçen International Airport

From SKYbrary Wiki

LTFJ
Airport
ICAO: LTFJ – IATA: SAW
Summary
Name Istanbul/Sabiha Gökçen International Airport
Region Europe
Territory Turkey TR.gif
Location Sanayi, Istanbul
Serving Istanbul
Elevation 95.098 m
312 ft
312 ft95.098 m
Coordinates 40° 54' 19.33" N, 29° 19' 0.70" E
Runways
Designator Length Width Surface ROPS
6/24 3000 m9,842.52 ft
45 m147.638 ft
CON yes/yes


METAR
Observation LTFJ 241820Z 03007KT 9999 FEW035 SCT140 16/14 Q1009 NOSIG
Station Istanbul / Sabiha Gokcen
Date/Time 24 May 2019 18:20:00
Wind direction 30°
Wind speed 07 kts
Lowest cloud amount few clouds
Temperature 16°C
Dew point 14°C
Humidity 87%
QNH 1009 hPa
Weather condition n/a

Istanbul Sabiha Gökçen International Airport is one of three international airports serving Istanbul, the largest city in Turkey.

Climatology

Dry-summer subtropical ”Mediterranean" climate (Köppen climate classification Csa)

Maps

Terrain

Loading map...

Airport Layout

Loading map...


Accidents & Serious Incidents at or in vicinity of LTFJ

None on SKYbrary